Regional Weather Roundup
Issued by NWS

Home | Current Version | Previous Version | Text Only | Print | Product List | Glossary On
Versions: 1 2 3 4 5 6 7 8 9 10 11 12 13 14 15 16 17 18 19 20 21 22 23 24 25 26 27 28 29 30 31 32 33 34 35 36 37 38 39 40 41 42 43 44 45 46 47 48 49 50
000
ASUS46 KLOX 011213
RWRCA

SOUTHERN CALIFORNIA WEATHER ROUNDUP
NATIONAL WEATHER SERVICE OXNARD CALIFORNIA
500 AM PDT SUN MAY 01 2016

NOTE: "FAIR" INDICATES FEW OR NO CLOUDS BELOW 12,000 FEET WITH NO
SIGNIFICANT WEATHER AND/OR OBSTRUCTIONS TO VISIBILITY.

  -  STATIONS PRECEEDED BY AN ASTERISK (*) ARE NOT NWS OR FAA
     STATIONS AND ARE NOT SUBJECT TO NWS AND FAA QUALITY CONTROL.

CAZ041-042-087-011300-
LA AND ORANGE COUNTY COASTAL AREAS


CITY           SKY/WX    TMP DP  RH WIND       PRES   REMARKS
L.A. DOWNTOWN  PTCLDY    59  52  77 E3        29.85S
L.A. AIRPORT   PTCLDY    56  51  84 E6        29.86R
LONG BEACH     MOCLDY    57  52  83 CALM      29.86R

CITY           SKY/WX    TMP DP  RH WIND       PRES   REMARKS
AVALON           N/A     52 N/A N/A E3          N/A
FULLERTON      MOCLDY    59  50  72 E6        29.85R
*GETTY CENTER    N/A     52  50  93 NE3         N/A
HAWTHORNE      CLEAR     58  52  80 E3        29.86R
*LOS ALAMITOS  CLOUDY    57  52  82 E3        29.86R
*REDONDO BEACH   N/A     54  50  86 CALM      29.85R
SANTA ANA      MOCLDY    57  50  77 SE3       29.85S
STA MONICA APT MOCLDY    56  49  77 CALM      29.86R
*STA MON PIER    N/A     58  51  80 E3        29.79S

$$

CAZ547-548-048-011300-
LA COUNTY VALLEYS AND INLAND EMPIRE


CITY           SKY/WX    TMP DP  RH WIND       PRES   REMARKS
BURBANK        CLOUDY    54  46  74 CALM      29.85R
VAN NUYS       CLEAR     55  46  71 CALM      29.86R

CITY           SKY/WX    TMP DP  RH WIND       PRES   REMARKS
CORONA AIRPORT SUNNY     45  41  86 CALM      29.87R
*CHATSWORTH      N/A     53  45  76 CALM      29.87R
CHINO          CLEAR     50  45  83 CALM      29.87R
*CLAREMONT       N/A     49  47  92 CALM        N/A
MARCH AFB      PTCLDY    46  46 100 S2        29.86R
*NORTHRIDGE      N/A     54  45  71 CALM        N/A
ONTARIO        PTCLDY    53  46  77 CALM      29.85S
*PASADENA        N/A     54  48  82 CALM        N/A
RIVERSIDE      MOCLDY    52  47  83 CALM      29.86R
SAN BERNARDINO NOT AVBL
*SAN GABRIEL     N/A     53  48  83 NW1       29.93R
*WHITEMAN AP   NOT AVBL
*WOODLAND HILL   N/A     50  46  87 S1          N/A

$$

CAZ054-055-011300-
LA AND SAN BERNARDINO COUNTY MOUNTAINS


CITY           SKY/WX    TMP DP  RH WIND       PRES   REMARKS
*ACTON           N/A     47  38  70 NE7         N/A
*BIG BEAR AIRP CLOUDY    41  34  75 E3        29.95R
*BIG PINES       N/A     40  35  82 CALM        N/A
*CHILAO          N/A     47  33  57 N2G14       N/A
SANDBERG       CLEAR     51  30  44 N8        29.92S
*WARM SPRINGS    N/A     53  38  56 CALM        N/A

$$

CAZ028-029-059-060-099-011300-
ANTELOPE VALLEY AND SURROUNDING AREAS


CITY           SKY/WX    TMP DP  RH WIND       PRES   REMARKS
LANCASTER      CLEAR     47  29  49 SW3       29.87R
PALMDALE       CLEAR     47  41  80 S7        29.87R

CITY           SKY/WX    TMP DP  RH WIND       PRES   REMARKS
29 PALMS       PTCLDY    57  39  51 NW3       29.89R
BARSTOW/DAGGET CLEAR     52  45  77 W6        29.84R
BISHOP         PTCLDY    42  30  62 NW6       29.97S
CHINA LAKE     CLEAR     57  32  38 NW12      29.85S
EDWARDS AFB    CLEAR     47  33  57 SE2       29.84R
MOJAVE         CLEAR     50  30  46 CALM      29.87S
NEEDLES        PTCLDY    60  50  69 NW6       29.79R
VICTORVILLE    PTCLDY    48  36  61 CALM      29.87S

$$

CAZ039-040-011300-
VENTURA AND SANTA BARBARA COUNTY COAST


CITY           SKY/WX    TMP DP  RH WIND       PRES   REMARKS
CAMARILLO      CLEAR     51  46  83 CALM      29.85R
NWS OXNARD       N/A     50  45  82 CALM      29.83S
OXNARD AIRPORT CLEAR     52  47  83 E3        29.84S
*POINT MUGU    CLEAR     50  46  86 E5        29.85R
SBA APT/GOLETA CLEAR     53  49  86 NE3       29.83S
*SANTA BARBARA   N/A     56  49  78 CALM      29.91F
*VENTURA         N/A     49  46  88 NW1       29.83S

$$

CAZ044-045-011300-
VENTURA COUNTY VALLEYS


CITY           SKY/WX    TMP DP  RH WIND       PRES   REMARKS
*SIMI VALLEY     N/A     53  46  75 CALM      29.82R
*WESTLAKE VILL   N/A     51  45  79 CALM      29.84R
*OJAI            N/A     42  40  90 CALM      29.81S
*FILLMORE        N/A     47  42  83 CALM      29.75R

$$

CAZ053-011300-
VENTURA COUNTY MOUNTAINS


CITY           SKY/WX    TMP DP  RH WIND       PRES   REMARKS
*LOCKWOOD VLY    N/A     32  25  74 CALM        N/A
*ROSE VALLEY     N/A     34  32  93 MISG        N/A

$$

CAZ034-035-036-011300-
CENTRAL COAST AND SANTA YNEZ VALLEY


CITY           SKY/WX    TMP DP  RH WIND       PRES   REMARKS
SAN LUIS OBISP CLEAR     48  43  82 CALM      29.82R
SANTA MARIA    CLEAR     48  42  80 CALM      29.82S

CITY           SKY/WX    TMP DP  RH WIND       PRES   REMARKS
*CAL POLY SLO    N/A     46  45  93 CALM        N/A
*LOMPOC        CLEAR     47  43  86 E8        29.82R
*PISMO BEACH     N/A     50  46  84 CALM      29.82S
*SANTA YNEZ    FAIR      45  37  76 CALM      29.83S

$$

CAZ037-038-051-011300-
SAN LUIS OBISPO COUNTY INTERIOR AND CUYAMA VALLEY


CITY           SKY/WX    TMP DP  RH WIND       PRES   REMARKS
*CUYAMA          N/A     46  34  62 E3        29.83S
PASO ROBLES    CLEAR     47  37  68 CALM      29.84S

$$

CAZ032-033-061-011300-
SOUTHERN DESERTS


CITY           SKY/WX    TMP DP  RH WIND       PRES   REMARKS
BLYTHE         CLEAR     61  46  57 N3        29.77R
IMPERIAL       CLEAR     60  46  59 W6        29.75R
PALM SPRINGS   PTCLDY    60  48  64 CALM      29.79S
THERMAL        CLEAR     64  47  53 N5        29.75R

$$

ELSEWHERE ACROSS THE WESTERN UNITED STATES AND MEXICO


CITY           SKY/WX    TMP DP  RH WIND       PRES   REMARKS
DEATH VALLEY,    N/A     71  38  30 E2          N/A
DENVER, CO     LGT SNOW  33  29  85 NW8       30.26R FOG     WCI  26
GRAND CANYON,  CLOUDY    40  35  83 NE9       29.89R WCI  34
HONOLULU, HI   MOCLDY    75  64  69 NE12      30.08F
KAHULUI, MAUI  MOCLDY    75  66  73 NE14      30.08F
LAKE TAHOE, CA MOCLDY    34  29  82 CALM      30.03S
LAS VEGAS, NV  MOCLDY    55  48  77 SW6       29.81S
MAMMOTH LAKES, FAIR      30  27  88 N3        30.05S
MEXICO CITY, M PTCLDY    59  30  33 SW5       30.21R
PHOENIX, AZ    MOCLDY    59  47  64 E10       29.75S
PORTLAND, OR   CLEAR     50  46  86 CALM      30.18F
RENO, NV       PTCLDY    38  32  79 CALM      30.03F
SALT LAKE CITY MOCLDY    50  22  33 E18G32    30.02F
SAN DIEGO, CA  MOCLDY    60  51  72 E5        29.88R
SAN FRANCISCO, CLEAR     59  44  57 SE5       29.80F
SAN JOSE, CA   CLEAR     54  45  71 SE6       29.81S
SEATTLE, WA    CLEAR     52  43  71 NE10      30.24F
TIJUANA, MEX   CLEAR     54  46  76 CALM      29.89R

$$

STATION/POSITION TIME  TEMP    WIND        PRES    VSBY  WAVE
                       AIR SEA DIR/SP/G                  HT/PER
                 (UTC) (F)     (DEG/KT/KT) (MB)    (MI)  (FT/S)
POINT ARGUELLO B NOT AVBL
WEST SANTA BARBA 1150   55 53   80/ 10/ 12 1009.2R        10/11
POINT CONCEPTION NOT AVBL
EAST SANTA BARBA 1100   54 56   CALM  /  4 1010.5R
SANTA MONICA BAY 1150   58 59  120/ 10/ 10 1010.6R         4/17


USA.gov is the U.S. government's official web portal to all federal, state and local government web resources and services.